When you browse on this site, cookies collect data to enhance your experience and personalize the content and advertising you see.
Visit our Privacy Policy to learn more. By continuing to use the site, you agree to this use of cookies and data.
  • In Hungary
  • List of Countries
  • For 7 days
  • Water Temperature
  • Satellite Maps
  • Weather Map
  • News
  • Weather Widgets
  • user-avatar
    Login

    Hourly Weather Shemetovo

    Today, 23 May, Thursday

    Time Temperature Precipitation Wind Pressure Humidity
    00:00 +13°C° 0 mm 1 mps 737 mmHg 94%
    01:00 +13°C° 0 mm 1 mps 737 mmHg 95%
    02:00 +13°C° 0 mm 1 mps 737 mmHg 95%
    03:00 +13°C° 0 mm 1 mps 736 mmHg 94%
    04:00 +13°C° 0 mm 1 mps 736 mmHg 94%
    05:00 +14°C° 0 mm 1 mps 736 mmHg 93%
    06:00 +16°C° 0.1 mm 2 mps 736 mmHg 88%
    07:00 +17°C° 0.1 mm 2 mps 736 mmHg 83%
    08:00 +19°C° 0.1 mm 2 mps 736 mmHg 78%
    09:00 +20°C° 0.5 mm 2 mps 736 mmHg 74%
    10:00 +21°C° 0.5 mm 2 mps 736 mmHg 71%
    11:00 +23°C° 0.5 mm 2 mps 736 mmHg 67%
    12:00 +21°C° 0.6 mm 3 mps 736 mmHg 71%
    13:00 +21°C° 0.6 mm 3 mps 736 mmHg 75%
    14:00 +20°C° 0.6 mm 3 mps 736 mmHg 79%
    15:00 +19°C° 0.3 mm 4 mps 737 mmHg 80%
    16:00 +18°C° 0.3 mm 4 mps 737 mmHg 81%
    17:00 +17°C° 0.3 mm 4 mps 737 mmHg 82%
    18:00 +14°C° 0 mm 4 mps 738 mmHg 83%
    19:00 +13°C° 0 mm 3 mps 738 mmHg 83%
    20:00 +11°C° 0 mm 3 mps 738 mmHg 84%
    21:00 +10°C° 0 mm 3 mps 739 mmHg 86%
    22:00 +9°C° 0 mm 2 mps 739 mmHg 89%
    23:00 +7°C° 0 mm 2 mps 740 mmHg 91%

    Tomorrow, 24 May, Friday

    Time Temperature Precipitation Wind Pressure Humidity
    00:00 +6°C° 0 mm 2 mps 740 mmHg 92%
    01:00 +6°C° 0 mm 2 mps 740 mmHg 93%
    02:00 +5°C° 0 mm 2 mps 741 mmHg 94%
    03:00 +5°C° 0 mm 2 mps 741 mmHg 91%
    04:00 +6°C° 0 mm 2 mps 741 mmHg 87%
    05:00 +6°C° 0 mm 2 mps 742 mmHg 83%
    06:00 +8°C° 0 mm 3 mps 742 mmHg 75%
    07:00 +10°C° 0 mm 3 mps 742 mmHg 67%
    08:00 +11°C° 0 mm 3 mps 742 mmHg 59%
    09:00 +12°C° 0 mm 3 mps 742 mmHg 54%
    10:00 +14°C° 0 mm 3 mps 742 mmHg 50%
    11:00 +16°C° 0 mm 3 mps 742 mmHg 46%
    12:00 +16°C° 0 mm 3 mps 742 mmHg 45%
    13:00 +17°C° 0 mm 3 mps 742 mmHg 45%
    14:00 +18°C° 0 mm 3 mps 742 mmHg 44%
    15:00 +18°C° 0 mm 3 mps 741 mmHg 46%
    16:00 +18°C° 0 mm 3 mps 741 mmHg 49%
    17:00 +18°C° 0 mm 3 mps 741 mmHg 51%
    18:00 +16°C° 0 mm 3 mps 741 mmHg 59%
    19:00 +14°C° 0 mm 2 mps 741 mmHg 67%
    20:00 +12°C° 0 mm 2 mps 741 mmHg 75%
    21:00 +11°C° 0 mm 3 mps 740 mmHg 75%
    22:00 +11°C° 0 mm 3 mps 740 mmHg 75%
    23:00 +10°C° 0 mm 3 mps 740 mmHg 75%

    Day after tomorrow, 25 May, Saturday

    Time Temperature Precipitation Wind Pressure Humidity
    00:00 +10°C° 0 mm 3 mps 740 mmHg 80%
    01:00 +10°C° 0 mm 3 mps 740 mmHg 84%
    02:00 +10°C° 0 mm 3 mps 739 mmHg 89%
    03:00 +10°C° 0 mm 3 mps 739 mmHg 90%
    04:00 +10°C° 0 mm 3 mps 739 mmHg 90%
    05:00 +11°C° 0 mm 3 mps 738 mmHg 91%
    06:00 +11°C° 0.5 mm 3 mps 738 mmHg 92%
    07:00 +12°C° 0.5 mm 3 mps 738 mmHg 92%
    08:00 +12°C° 0.5 mm 3 mps 738 mmHg 93%
    09:00 +13°C° 0.5 mm 3 mps 738 mmHg 92%
    10:00 +14°C° 0.5 mm 3 mps 737 mmHg 90%
    11:00 +14°C° 0.5 mm 3 mps 737 mmHg 89%
    12:00 +16°C° 0.3 mm 3 mps 737 mmHg 87%
    13:00 +17°C° 0.3 mm 3 mps 736 mmHg 85%
    14:00 +18°C° 0.3 mm 3 mps 736 mmHg 83%
    15:00 +18°C° 0.4 mm 3 mps 735 mmHg 85%
    16:00 +18°C° 0.4 mm 3 mps 735 mmHg 86%
    17:00 +18°C° 0.4 mm 3 mps 734 mmHg 87%
    18:00 +17°C° 0.5 mm 2 mps 734 mmHg 90%
    19:00 +16°C° 0.5 mm 2 mps 734 mmHg 92%
    20:00 +16°C° 0.5 mm 2 mps 733 mmHg 95%
    21:00 +15°C° 0.4 mm 2 mps 733 mmHg 95%
    22:00 +14°C° 0.4 mm 2 mps 733 mmHg 96%
    23:00 +13°C° 0.4 mm 2 mps 733 mmHg 96%

    26 May, Sunday

    Time Temperature Precipitation Wind Pressure Humidity
    00:00 +12°C° 0 mm 2 mps 733 mmHg 97%
    01:00 +12°C° 0 mm 2 mps 733 mmHg 97%
    02:00 +10°C° 0 mm 2 mps 733 mmHg 97%
    03:00 +10°C° 0 mm 2 mps 733 mmHg 96%
    04:00 +10°C° 0 mm 2 mps 733 mmHg 96%
    05:00 +10°C° 0 mm 2 mps 734 mmHg 95%
    06:00 +11°C° 0 mm 3 mps 734 mmHg 88%
    07:00 +12°C° 0 mm 3 mps 734 mmHg 81%
    08:00 +13°C° 0 mm 3 mps 734 mmHg 73%
    09:00 +14°C° 0 mm 3 mps 734 mmHg 67%
    10:00 +17°C° 0 mm 3 mps 734 mmHg 60%
    11:00 +18°C° 0 mm 4 mps 734 mmHg 54%
    12:00 +18°C° 0 mm 3 mps 734 mmHg 52%
    13:00 +19°C° 0 mm 3 mps 734 mmHg 50%
    14:00 +19°C° 0 mm 3 mps 734 mmHg 48%
    15:00 +19°C° 0 mm 2 mps 734 mmHg 50%
    16:00 +19°C° 0 mm 2 mps 734 mmHg 53%
    17:00 +19°C° 0 mm 2 mps 734 mmHg 55%
    18:00 +18°C° 0 mm 1 mps 734 mmHg 61%
    19:00 +16°C° 0 mm 1 mps 734 mmHg 67%
    20:00 +14°C° 0 mm 1 mps 733 mmHg 73%
    21:00 +13°C° 0 mm 1 mps 733 mmHg 76%
    22:00 +12°C° 0 mm 2 mps 733 mmHg 79%
    23:00 +10°C° 0 mm 2 mps 732 mmHg 83%

    27 May, Monday

    Time Temperature Precipitation Wind Pressure Humidity
    00:00 +10°C° 0.3 mm 2 mps 732 mmHg 86%
    01:00 +10°C° 0.3 mm 3 mps 732 mmHg 89%
    02:00 +10°C° 0.3 mm 3 mps 732 mmHg 92%
    03:00 +10°C° 0.6 mm 4 mps 732 mmHg 92%
    04:00 +10°C° 0.6 mm 4 mps 732 mmHg 92%
    05:00 +10°C° 0.6 mm 4 mps 732 mmHg 92%
    06:00 +9°C° 0.2 mm 5 mps 732 mmHg 87%
    07:00 +9°C° 0.2 mm 5 mps 732 mmHg 82%
    08:00 +9°C° 0.2 mm 6 mps 733 mmHg 77%
    09:00 +10°C° 0.3 mm 6 mps 733 mmHg 73%
    10:00 +11°C° 0.3 mm 6 mps 734 mmHg 69%
    11:00 +11°C° 0.3 mm 6 mps 734 mmHg 65%
    12:00 +13°C° 0.1 mm 6 mps 735 mmHg 61%
    13:00 +13°C° 0.1 mm 6 mps 735 mmHg 58%
    14:00 +14°C° 0.1 mm 6 mps 736 mmHg 54%
    15:00 +14°C° 0.1 mm 6 mps 736 mmHg 57%
    16:00 +14°C° 0.1 mm 5 mps 737 mmHg 60%
    17:00 +13°C° 0.1 mm 4 mps 737 mmHg 63%
    18:00 +12°C° 0 mm 4 mps 737 mmHg 68%
    19:00 +12°C° 0 mm 3 mps 738 mmHg 74%
    20:00 +11°C° 0 mm 3 mps 739 mmHg 79%
    21:00 +10°C° 0 mm 3 mps 739 mmHg 84%
    22:00 +9°C° 0 mm 3 mps 739 mmHg 88%
    23:00 +8°C° 0 mm 2 mps 740 mmHg 93%

    28 May, Tuesday

    Time Temperature Precipitation Wind Pressure Humidity
    00:00 +7°C° 0 mm 2 mps 740 mmHg 94%
    01:00 +7°C° 0 mm 2 mps 741 mmHg 95%
    02:00 +6°C° 0 mm 2 mps 741 mmHg 96%
    03:00 +7°C° 0 mm 2 mps 742 mmHg 93%
    04:00 +7°C° 0 mm 2 mps 742 mmHg 89%
    05:00 +8°C° 0 mm 2 mps 742 mmHg 86%
    06:00 +10°C° 0 mm 2 mps 742 mmHg 78%
    07:00 +13°C° 0 mm 2 mps 742 mmHg 70%
    08:00 +15°C° 0 mm 2 mps 743 mmHg 62%
    09:00 +17°C° 0 mm 2 mps 742 mmHg 58%
    10:00 +18°C° 0 mm 2 mps 742 mmHg 54%
    11:00 +20°C° 0 mm 2 mps 742 mmHg 51%
    12:00 +21°C° 0 mm 3 mps 742 mmHg 51%
    13:00 +21°C° 0 mm 3 mps 742 mmHg 52%
    14:00 +21°C° 0 mm 3 mps 742 mmHg 53%
    15:00 +20°C° 0 mm 3 mps 742 mmHg 60%
    16:00 +19°C° 0 mm 3 mps 742 mmHg 66%
    17:00 +18°C° 0 mm 3 mps 742 mmHg 72%
    18:00 +18°C° 0 mm 3 mps 741 mmHg 76%
    19:00 +17°C° 0 mm 3 mps 741 mmHg 81%
    20:00 +16°C° 0 mm 3 mps 741 mmHg 85%
    21:00 +16°C° 0.1 mm 3 mps 740 mmHg 86%
    22:00 +16°C° 0.1 mm 3 mps 740 mmHg 88%
    23:00 +15°C° 0.1 mm 4 mps 740 mmHg 90%
    Show more